WS Maaseik 1 Meer informatie WS Maaseik 1


WS Maaseik 2 Meer informatie WS Maaseik 2


Regen radar Meer informatie rain snow radar


Bezoek onze andere website:

Vorige versie
weerstation Maaseik


Bezoek ook eens deze sites:

Weerstation Geleen



Het weer levert geen direct gevaar op.    Er zijn geen waarschuwingen afgegeven.

15 daagse weersverwachting Bradford (GB)

  • Overzicht
  • Per uur
  • 15 dagen
  • Extra
  • Vergelijk
  • Kaarten
  • Dagkaart
  • Meer »
  • Info
  • Statistieken
  • Directe link
    Temp 6h Neerslag Wind  
 08:02     17:40    Daglengte: 9:38 Vandaag
13:00
16°
 
8
19:00
14°
1.8 mm
6
 08:04     17:38    Daglengte: 9:34 Morgen
01:00
13°
23.0 mm
6
07:00
12°
21.4 mm
4
13:00
13°
17.9 mm
5
19:00
6.0 mm
7
 08:06     17:36    Daglengte: 9:30 Zaterdag 30 Okt
01:00
 
3
07:00
10°
31.5 mm
5
13:00
10°
71.8 mm
3
19:00
14.8 mm
3
 08:08     17:34    Daglengte: 9:26 Zondag 31 Okt
01:00
 
3
06:00
 
2
Locatie info
Region: England
Latitude: 53.7957°N
Longitude: -1.7583°E
110 masl
Postcode: BD1 2
Temp/Neerslag /Baro Onweer/Dauwpunt
    Temp Baro 1h Neerslag Dauwpunt Wind UV Bewolking  
 08:02     17:40    Daglengte: 9:38 Vandaag
12:00
15°
1002.5 hPa
12%
11.3°
8
Windvlaag: 14.6 m/s
59%
13:00
16°
1002.0 hPa
14%
10.5°
8
Windvlaag: 15.1 m/s
59%
14:00
16°
1001.1 hPa
12%
10.4°
8
Windvlaag: 14.7 m/s
51%
15:00
16°
1000.2 hPa
65%
10.1°
8
Windvlaag: 14.2 m/s
86%
16:00
15°
999.8 hPa 0.2 mm
78%
10.1°
8
Windvlaag: 14 m/s
86%
17:00
15°
999.5 hPa 0.2 mm
79%
10.6°
7
Windvlaag: 14 m/s
86%
18:00
15°
999.2 hPa 0.4 mm
82%
11.2°
7
Windvlaag: 13.6 m/s
86%
19:00
14°
999.1 hPa 0.9 mm
82%
11.6°
6
Windvlaag: 12.1 m/s
86%
20:00
14°
998.8 hPa 1.3 mm
82%
11.6°
6
Windvlaag: 10.3 m/s
86%
21:00
14°
998.4 hPa 2.1 mm
82%
11.8°
5
Windvlaag: 8.8 m/s
86%
22:00
14°
997.9 hPa 3.8 mm
82%
11.4°
5
Windvlaag: 7.7 m/s
86%
23:00
14°
997.4 hPa 5.9 mm
82%
11.5°
5
Windvlaag: 9 m/s
86%
 08:04     17:38    Daglengte: 9:34 Morgen
00:00
13°
996.5 hPa 4.9 mm
82%
11.6°
5
Windvlaag: 9.8 m/s
86%
01:00
13°
995.6 hPa 5.1 mm
82%
11.4°
6
Windvlaag: 11.2 m/s
86%
02:00
13°
994.8 hPa 4.8 mm
82%
11.3°
6
Windvlaag: 12.1 m/s
86%
03:00
13°
993.9 hPa 4.5 mm
82%
11.5°
6
Windvlaag: 13.4 m/s
86%
04:00
13°
992.5 hPa 5.6 mm
82%
11.5°
7
Windvlaag: 16 m/s
86%
05:00
13°
992.0 hPa 6.4 mm
82%
11.1°
6
Windvlaag: 16 m/s
86%
06:00
13°
992.1 hPa
82%
10.6°
5
Windvlaag: 6.5 m/s
86%
07:00
12°
991.5 hPa
82%
9.7°
4
Windvlaag: 6 m/s
86%
08:00
13°
991.2 hPa 6.2 mm
82%
9.6°
4
Windvlaag: 4.8 m/s
86%
09:00
13°
991.3 hPa 5.8 mm
82%
9.8°
5
Windvlaag: 3.6 m/s
85%
10:00
13°
991.1 hPa
82%
10.4°
5
Windvlaag: 2.3 m/s
86%
11:00
13°
990.4 hPa
82%
9.6°
5
Windvlaag: 1.5 m/s
85%
12:00
13°
990.1 hPa
80%
6.0°
6
Windvlaag: 1.3 m/s
84%
13:00
13°
989.6 hPa 5.9 mm
82%
5.5°
5
Windvlaag: 1.9 m/s
86%
14:00
12°
988.9 hPa 6.0 mm
81%
5.8°
6
Windvlaag: 1.2 m/s
77%
15:00
11°
989.3 hPa
23%
7.5°
7
Windvlaag: 0.7 m/s
75%
16:00
10°
991.2 hPa
14%
6.4°
10
Windvlaag: 4.1 m/s
68%
17:00
10°
Voelt als: 5.9°
992.7 hPa
14%
4.6°
9
Windvlaag: 3.1 m/s
56%
18:00
Voelt als: 6.0°
993.7 hPa
14%
5.0°
6
Windvlaag: 1.7 m/s
53%
19:00
Voelt als: 5.7°
994.6 hPa
14%
4.8°
7
Windvlaag: 9.7 m/s
35%
20:00
Voelt als: 5.5°
995.3 hPa
14%
4.2°
7
Windvlaag: 10.1 m/s
43%
21:00
Voelt als: 5.6°
995.6 hPa
14%
4.8°
6
Windvlaag: 9.7 m/s
34%
22:00
Voelt als: 5.4°
996.0 hPa
14%
5.1°
6
Windvlaag: 9 m/s
23%
23:00
Voelt als: 5.8°
996.0 hPa
14%
5.5°
5
Windvlaag: 8.7 m/s
26%
 08:06     17:36    Daglengte: 9:30 Zaterdag 30 Okt
00:00
Voelt als: 6.1°
996.0 hPa
14%
5.2°
4
Windvlaag: 8.1 m/s
40%
01:00
Voelt als: 6.4°
995.7 hPa
14%
6.2°
3
Windvlaag: 7.8 m/s
46%
02:00
Voelt als: 5.9°
995.2 hPa
16%
6.8°
4
Windvlaag: 9.5 m/s
68%
03:00
Voelt als: 5.9°
994.6 hPa
19%
7.7°
4
Windvlaag: 10.3 m/s
86%
04:00
10°
Voelt als: 7.1°
994.1 hPa 9.4 mm
44%
7.5°
5
Windvlaag: 11 m/s
99%
05:00
10°
Voelt als: 7.2°
993.7 hPa 5.6 mm
100%
7.4°
4
Windvlaag: 10.6 m/s
99%
06:00
Voelt als: 7.4°
993.7 hPa 5.8 mm
100%
7.4°
4
Windvlaag: 8.6 m/s
100%
07:00
10°
Voelt als: 7.3°
993.6 hPa 10.7 mm
100%
8.1°
5
Windvlaag: 9.2 m/s
100%
08:00
10°
Voelt als: 7.7°
993.5 hPa 10.8 mm
46%
8.0°
4
Windvlaag: 9.7 m/s
98%
09:00
Voelt als: 7.9°
993.8 hPa 6.7 mm
100%
8.8°
3
Windvlaag: 9.6 m/s
94%
10:00
Voelt als: 7.6°
993.8 hPa 8.0 mm
99%
8.2°
3
Windvlaag: 9 m/s
92%
11:00
Voelt als: 7.3°
993.3 hPa 15.2 mm
80%
7.6°
4
Windvlaag: 4 m/s
76%
12:00
10°
Voelt als: 7.6°
992.9 hPa 15.9 mm
21%
6.6°
4
Windvlaag: 3.6 m/s
71%
13:00
10°
Voelt als: 8.2°
992.8 hPa 15.3 mm
21%
6.7°
3
Windvlaag: 4.5 m/s
78%
14:00
10°
992.5 hPa 14.8 mm
21%
6.7°
4
Windvlaag: -4.4 m/s
81%
15:00
11°
992.3 hPa
21%
6.4°
4
Windvlaag: -4.1 m/s
78%
16:00
11°
992.5 hPa
22%
6.1°
5
Windvlaag: -1.6 m/s
80%
17:00
10°
992.9 hPa
21%
6.5°
3
Windvlaag: -1.5 m/s
84%
18:00
Voelt als: 8.1°
993.6 hPa
21%
6.5°
3
Windvlaag: 0.7 m/s
66%
19:00
Voelt als: 7.4°
994.2 hPa
21%
6.8°
3
Windvlaag: 1.3 m/s
87%
20:00
Voelt als: 6.7°
994.5 hPa
21%
6.3°
4
Windvlaag: 1.5 m/s
89%
21:00
Voelt als: 6.0°
994.7 hPa
21%
5.9°
4
Windvlaag: 2.5 m/s
85%
22:00
Voelt als: 5.6°
995.0 hPa
21%
5.4°
4
Windvlaag: 2.3 m/s
28%
23:00
Voelt als: 5.0°
995.5 hPa
21%
4.9°
4
Windvlaag: 2.5 m/s
43%
 08:08     17:34    Daglengte: 9:26 Zondag 31 Okt
00:00
Voelt als: 4.3°
996.0 hPa
21%
4.3°
4
Windvlaag: 6.4 m/s
49%
01:00
Voelt als: 4.0°
996.2 hPa
21%
4.2°
3
Windvlaag: 6.6 m/s
32%
01:00
Voelt als: 5.7°
996.4 hPa
21%
4.3°
1
Windvlaag: 9.5 m/s
37%
02:00
Voelt als: 5.9°
996.1 hPa
21%
4.2°
1
Windvlaag: 9.7 m/s
7%
03:00
Voelt als: 5.8°
995.4 hPa
21%
4.2°
1
Windvlaag: 9.6 m/s
8%
04:00
Voelt als: 4.8°
995.1 hPa
21%
4.3°
2
Windvlaag: 11.6 m/s
52%
05:00
Voelt als: 4.1°
994.4 hPa
21%
4.1°
2
Windvlaag: 13.7 m/s
58%
06:00
Voelt als: 3.3°
993.8 hPa
21%
3.8°
2
Windvlaag: 15.5 m/s
47%
07:00
Voelt als: 3.9°
990.5 hPa 38.0 mm
100%
6.3°
7
Windvlaag: 16.3 m/s
100%
08:00
Voelt als: 4.7°
990.6 hPa 40.4 mm
100%
7.4°
7
Windvlaag: 15.2 m/s
100%
09:00
Voelt als: 5.2°
988.1 hPa 46.1 mm
100%
8.0°
7
Windvlaag: 16.5 m/s
100%
10:00
Voelt als: 6.5°
987.1 hPa 47.2 mm
100%
8.4°
5
Windvlaag: 11.8 m/s
100%
Temp/Neerslag /Baro Onweer/Dauwpunt
    Temp Baro Neerslag Dauwpunt Wind Bewolking  
 08:02     17:40    Daglengte: 9:38 Vandaag
13:00
16°
1002.0 hPa   10.5°
8
59%
16:00
15°
999.8 hPa 0.2 mm 10.1°
8
86%
19:00
14°
999.1 hPa 1.5 mm 11.6°
6
86%
22:00
14°
997.9 hPa 7.2 mm 11.4°
5
86%
 08:04     17:38    Daglengte: 9:34 Morgen
01:00
13°
995.6 hPa 15.8 mm 11.4°
6
86%
04:00
13°
992.5 hPa 14.9 mm 11.5°
7
86%
07:00
12°
991.5 hPa 6.4 mm 9.7°
4
86%
10:00
13°
991.1 hPa 12.0 mm 10.4°
5
86%
13:00
13°
989.6 hPa 5.9 mm 5.5°
5
86%
16:00
10°
991.2 hPa 6.0 mm 6.4°
10
68%
19:00
Voelt als: 5.7°
994.6 hPa   4.8°
7
35%
22:00
Voelt als: 5.4°
996.0 hPa   5.1°
6
23%
 08:06     17:36    Daglengte: 9:30 Zaterdag 30 Okt
01:00
Voelt als: 6.4°
995.7 hPa   6.2°
3
46%
04:00
10°
Voelt als: 7.1°
994.1 hPa 9.4 mm 7.5°
5
99%
07:00
10°
Voelt als: 7.3°
993.6 hPa 22.1 mm 8.1°
5
100%
10:00
Voelt als: 7.6°
993.8 hPa 25.5 mm 8.2°
3
92%
13:00
10°
Voelt als: 8.2°
992.8 hPa 46.4 mm 6.7°
3
78%
16:00
11°
992.5 hPa 14.8 mm 6.1°
5
80%
19:00
Voelt als: 7.4°
994.2 hPa   6.8°
3
87%
22:00
Voelt als: 5.6°
995.0 hPa   5.4°
4
28%
 08:08     17:34    Daglengte: 9:26 Zondag 31 Okt
01:00
Voelt als: 4.0°
996.2 hPa   4.2°
3
32%
03:00
Voelt als: 5.8°
995.4 hPa   4.2°
1
8%
06:00
Voelt als: 3.3°
993.8 hPa   3.8°
2
47%
09:00
Voelt als: 5.2°
988.1 hPa 124.6 mm 8.0°
7
100%
12:00
11°
987.7 hPa 141.9 mm 7.5°
6
92%
15:00
10°
Voelt als: 6.8°
989.9 hPa 50.7 mm 5.3°
5
1%
18:00
Voelt als: 4.3°
990.7 hPa 50.7 mm 3.8°
5
0%
21:00
Voelt als: 3.9°
990.5 hPa 50.7 mm 3.7°
5
0%
 08:10     17:32    Daglengte: 9:22 Maandag 01 Nov
00:00
Voelt als: 3.6°
989.4 hPa 50.7 mm 4.4°
4
1%
03:00
Voelt als: 3.3°
987.4 hPa 50.7 mm 4.5°
6
1%
06:00
Voelt als: 2.9°
985.5 hPa 51.1 mm 4.7°
7
1%
09:00
Voelt als: 3.7°
984.4 hPa 54.0 mm 6.3°
8
1%
12:00
10°
Voelt als: 5.5°
987.4 hPa 55.1 mm 6.1°
10
1%
15:00
Voelt als: 4.5°
990.9 hPa 57.1 mm 5.6°
11
1%
18:00
Voelt als: 3.7°
993.2 hPa 57.1 mm 4.8°
8
0%
21:00
Voelt als: 4.1°
994.6 hPa 57.1 mm 4.8°
5
1%
 08:12     17:30    Daglengte: 9:18 Dinsdag 02 Nov
00:00
Voelt als: 3.3°
994.0 hPa 57.2 mm 4.6°
5
1%
03:00
Voelt als: 3.2°
992.6 hPa 57.2 mm 4.3°
3
0%
06:00
Voelt als: 4.4°
991.3 hPa 57.2 mm 4.4°
1
0%
09:00
Voelt als: 6.3°
990.0 hPa 58.9 mm 5.7°
1
1%
12:00
Voelt als: 6.1°
989.7 hPa 62.9 mm 5.4°
1
1%
15:00
Voelt als: 5.2°
990.0 hPa 65.9 mm 5.1°
2
1%
18:00
Voelt als: 5.7°
991.5 hPa 69.3 mm 5.2°
1
1%
21:00
Voelt als: 4.4°
993.0 hPa 69.9 mm 5.1°
4
1%
 08:14     17:28    Daglengte: 9:14 Woensdag 03 Nov
00:00
Voelt als: 3.3°
995.3 hPa 71.2 mm 5.4°
6
1%
03:00
Voelt als: 3.2°
997.8 hPa 71.2 mm 3.4°
3
1%
06:00
Voelt als: 1.8°
999.8 hPa 71.2 mm 1.9°
4
1%
09:00
Voelt als: 3.0°
1002.0 hPa 71.2 mm 2.0°
4
1%
12:00
Voelt als: 5.1°
1003.9 hPa 71.2 mm 2.2°
5
0%
15:00
Voelt als: 4.7°
1005.9 hPa 71.3 mm 2.2°
4
1%
18:00
Voelt als: 2.9°
1008.8 hPa 71.3 mm 1.5°
3
1%
21:00
Voelt als: 2.6°
1011.4 hPa 71.3 mm 1.4°
2
0%
 08:16     17:26    Daglengte: 9:10 Donderdag 04 Nov
00:00
Voelt als: 1.7°
1013.0 hPa 71.3 mm 0.5°
2
0%
03:00
Voelt als: 0.6°
1014.2 hPa 71.3 mm -0.3°
2
0%
06:00
Voelt als: 0.8°
1015.1 hPa 71.3 mm -1.4°
2
0%
09:00
Voelt als: 1.8°
1016.0 hPa   -0.1°
3
0%
12:00
Voelt als: 4.5°
1015.4 hPa 142.6 mm 2.0°
5
1%
18:00
Voelt als: 4.4°
1012.9 hPa 142.6 mm 5.4°
7
1%
 08:18     17:25    Daglengte: 9:07 Vrijdag 05 Nov
00:00
10°
Voelt als: 6.6°
1011.5 hPa 143.0 mm 7.8°
8
1%
06:00
Voelt als: 5.6°
1011.7 hPa 143.9 mm 6.2°
7
1%
12:00
11°
1014.4 hPa 144.2 mm 5.6°
7
1%
18:00
Voelt als: 5.6°
1017.9 hPa 144.4 mm 4.7°
5
0%
 08:20     17:23    Daglengte: 9:03 Zaterdag 06 Nov
00:00
Voelt als: 6.1°
1018.4 hPa 144.4 mm 6.8°
4
1%
06:00
Voelt als: 6.4°
1016.5 hPa 144.5 mm 7.1°
6
1%
12:00
11°
1013.3 hPa 144.6 mm 8.0°
8
1%
18:00
12°
1011.3 hPa 150.0 mm 10.9°
8
1%
 08:22     17:21    Daglengte: 8:59 Zondag 07 Nov
00:00
13°
1010.3 hPa 153.9 mm 11.7°
7
1%
06:00
Voelt als: 3.0°
1012.2 hPa 0.5 mm 3.5°
3
62%
12:00
Voelt als: 6.7°
1012.4 hPa 0.7 mm 4.8°
3
68%
18:00
Voelt als: 4.6°
1012.7 hPa 0.5 mm 4.1°
2
66%
 08:23     17:19    Daglengte: 8:56 Maandag 08 Nov
00:00
Voelt als: 3.8°
1013.7 hPa 0.8 mm 3.5°
2
67%
06:00
Voelt als: 3.0°
1014.6 hPa 0.4 mm 2.6°
2
65%
12:00
Voelt als: 6.3°
1015.7 hPa 0.6 mm 3.7°
3
58%
18:00
Voelt als: 4.3°
1016.3 hPa 0.3 mm 3.7°
3
66%
 08:25     17:17    Daglengte: 8:52 Dinsdag 09 Nov
00:00
Voelt als: 3.2°
1016.3 hPa 0.9 mm 3.6°
3
58%
06:00
Voelt als: 3.0°
1016.2 hPa 0.4 mm 3.4°
4
63%
12:00
Voelt als: 5.6°
1017.7 hPa 0.3 mm 3.9°
5
58%
18:00
Voelt als: 4.2°
1018.5 hPa 0.2 mm 3.9°
3
69%
 08:27     17:16    Daglengte: 8:49 Woensdag 10 Nov
00:00
Voelt als: 3.6°
1018.4 hPa 0.4 mm 3.9°
3
70%
06:00
Voelt als: 3.7°
1017.8 hPa 0.4 mm 4.4°
3
65%
12:00
Voelt als: 6.9°
1018.0 hPa 0.4 mm 5.7°
5
65%
18:00
Voelt als: 4.9°
1017.3 hPa 0.5 mm 5.3°
4
70%
 08:29     17:14    Daglengte: 8:45 Donderdag 11 Nov
00:00
Voelt als: 4.1°
1017.0 hPa 1.0 mm 4.9°
4
63%
06:00
Voelt als: 3.4°
1017.0 hPa 0.5 mm 3.9°
4
57%
12:00
Voelt als: 7.0°
1017.3 hPa 0.4 mm 5.0°
4
51%
18:00
Voelt als: 4.3°
1017.2 hPa 0.2 mm 4.3°
3
56%
 08:31     17:12    Daglengte: 8:41 Vrijdag 12 Nov
00:00
Voelt als: 3.2°
1017.4 hPa 0.3 mm 3.8°
3
54%
06:00
Voelt als: 2.8°
1017.1 hPa 0.2 mm 3.2°
3
51%
  CAPE Lifted Index Hail Supercell Tornado SRH 3km CL BTM PRES CL TOP PRES Swiss DWD icon SMHI TS
 08:02     17:40    Daglengte: 9:38 Vandaag
12:00 2 J/kg 2.3 K 0 % 0 % 0 % 0 m²/s² 0 0 5.39 3
13:00 0 J/kg 2.9 K 0 % 0 % 0 % 0 m²/s² 0 0 5.3 3
14:00 0 J/kg 3.3 K 0 % 0 % 0 % 0 m²/s² 0 0 3.6 2
15:00 0 J/kg 3.5 K 0 % 0 % 0 % 0 m²/s² 0 0 3.77 3
16:00 0 J/kg 2.4 K 0 % 0 % 0 % 0 m²/s² 0 0 2.73 61
17:00 0 J/kg 2.4 K 0 % 0 % 0 % 0 m²/s² 0 0 2.64 61
18:00 0 J/kg 1.9 K 0 % 0 % 0 % 0 m²/s² 0 0 2.02 61
19:00 0 J/kg 2.0 K 0 % 0 % 0 % 0 m²/s² 0 0 2.09 61
20:00 3 J/kg 2.1 K 0 % 0 % 0 % 0 m²/s² 0 0 2.19 61
21:00 40 J/kg 2.6 K 0 % 0 % 0 % 0 m²/s² 0 0 2.69 61
22:00 60 J/kg 2.8 K 0 % 0 % 0 % 0 m²/s² 0 0 3.01 61
23:00 60 J/kg 2.9 K 0 % 0 % 0 % 0 m²/s² 0 0 3.14 61
 08:04     17:38    Daglengte: 9:34 Morgen
00:00 22 J/kg 3.6 K 0 % 0 % 0 % 0 m²/s² 0 0 5.04 61
01:00 2 J/kg 3.4 K 0 % 0 % 0 % 0 m²/s² 0 0 4.63 61
02:00 10 J/kg 3.0 K 0 % 0 % 0 % 0 m²/s² 0 0 3.12 80
03:00 8 J/kg 2.4 K 0 % 0 % 0 % 0 m²/s² 0 0 2.61 61
04:00 30 J/kg 1.6 K 0 % 0 % 0 % 0 m²/s² 0 0 1.78 61
05:00 1 J/kg 1.8 K 0 % 0 % 0 % 0 m²/s² 0 0 2.22 63
06:00 0 J/kg 0.9 K 0 % 0 % 0 % 0 m²/s² 0 0 1.2 61
07:00 1 J/kg 0.7 K 0 % 0 % 0 % 0 m²/s² 0 0 0.94 61
08:00 34 J/kg 0.6 K 0 % 0 % 0 % 0 m²/s² 0 0 1.11 61
09:00 74 J/kg 0.4 K 0 % 0 % 0 % 0 m²/s² 0 0 1.6 61
10:00 89 J/kg 0.9 K 0 % 0 % 0 % 0 m²/s² 0 0 2.04 61
11:00 250 J/kg -0.8 K 0 % 0 % 0 % 0 m²/s² 0 0 2.11 3
12:00 243 J/kg -0.5 K 0 % 0 % 0 % 0 m²/s² 0 0 3.7 3
13:00 261 J/kg -0.6 K 0 % 0 % 0 % 0 m²/s² 0 0 3.18 80
14:00 291 J/kg -0.7 K 0 % 0 % 0 % 0 m²/s² 0 0 1.52 80
15:00 6 J/kg 1.6 K 0 % 0 % 0 % 0 m²/s² 0 0 4.12 3
16:00 1 J/kg 4.7 K 0 % 0 % 0 % 0 m²/s² 0 0 6.35 3
17:00 2 J/kg 5.5 K 0 % 0 % 0 % 0 m²/s² 0 0 6.82 3
18:00 0 J/kg 4.1 K 0 % 0 % 0 % 0 m²/s² 0 0 6.77 3
19:00 0 J/kg 1.7 K 0 % 0 % 0 % 0 m²/s² 0 0 4.61 3
20:00 0 J/kg 0.5 K 0 % 0 % 0 % 0 m²/s² 0 0 3.41 3
21:00 0 J/kg -0.2 K 0 % 0 % 0 % 0 m²/s² 0 0 3.19 2
22:00 24 J/kg -0.3 K 0 % 0 % 0 % 0 m²/s² 0 0 2.52 1
23:00 0 J/kg 0.2 K 0 % 0 % 0 % 0 m²/s² 0 0 2.39 1
 08:06     17:36    Daglengte: 9:30 Zaterdag 30 Okt
00:00 0 J/kg 1.0 K 0 % 0 % 0 % 0 m²/s² 0 0 3.19 3
01:00 0 J/kg 1.5 K 0 % 0 % 0 % 0 m²/s² 0 0 2.19 3
02:00 0 J/kg 0.6 K 0 % 0 % 0 % 0 m²/s² 0 0 1.2 3
03:00 13 J/kg 0.2 K 0 % 0 % 0 % 0 m²/s² 0 0 1.25 3
04:00 20 J/kg 1.1 K 0 % 0 % 0 % 0 m²/s² 0 0 2.51 3
05:00 0 J/kg 1.6 K 0 % 0 % 0 % 0 m²/s² 0 0 3.22 61
06:00 0 J/kg 2.1 K 0 % 0 % 0 % 0 m²/s² 0 0 2.67 61
07:00 16 J/kg 2.5 K 0 % 0 % 0 % 0 m²/s² 0 0 2.83 3
08:00 13 J/kg 3.0 K 0 % 0 % 0 % 0 m²/s² 0 0 3.33 3
09:00 51 J/kg 2.9 K 0 % 0 % 0 % 0 m²/s² 0 0 3.17 3
10:00 27 J/kg 3.4 K 0 % 0 % 0 % 0 m²/s² 0 0 3.73 3
11:00 4 J/kg 4.3 K 0 % 0 % 0 % 0 m²/s² 0 0 4.69 2
12:00 0 J/kg 4.5 K 0 % 0 % 0 % 0 m²/s² 0 0 4.95 2
13:00 0 J/kg 4.3 K 0 % 0 % 0 % 0 m²/s² 0 0 4.84 2
14:00 0 J/kg 4.4 K 0 % 0 % 0 % 0 m²/s² 0 0 5.6 3
15:00 30 J/kg 3.5 K 0 % 0 % 0 % 0 m²/s² 0 0 6.41 3
16:00 43 J/kg 3.3 K 0 % 0 % 0 % 0 m²/s² 0 0 6.42 3
17:00 73 J/kg 2.8 K 0 % 0 % 0 % 0 m²/s² 0 0 6.28 3
18:00 66 J/kg 2.9 K 0 % 0 % 0 % 0 m²/s² 0 0 6.02 3
19:00 66 J/kg 2.8 K 0 % 0 % 0 % 0 m²/s² 0 0 8.32 3
20:00 4 J/kg 3.4 K 0 % 0 % 0 % 0 m²/s² 0 0 9.82 3
21:00 0 J/kg 3.6 K 0 % 0 % 0 % 0 m²/s² 0 0 10.23 3
22:00 0 J/kg 4.1 K 0 % 0 % 0 % 0 m²/s² 0 0 10.76 2
23:00 0 J/kg 4.8 K 0 % 0 % 0 % 0 m²/s² 0 0 10.86 3
 08:08     17:34    Daglengte: 9:26 Zondag 31 Okt
00:00 0 J/kg 5.0 K 0 % 0 % 0 % 0 m²/s² 0 0 11.9 3
01:00 0 J/kg 5.0 K 0 % 0 % 0 % 0 m²/s² 0 0 12.74 3
01:00 0 J/kg 4.5 K 0 % 0 % 0 % 0 m²/s² 0 0 13.26 2
02:00 0 J/kg 5.3 K 0 % 0 % 0 % 0 m²/s² 0 0 14.51 1
03:00 0 J/kg 4.8 K 0 % 0 % 0 % 0 m²/s² 0 0 12.57 1
04:00 0 J/kg 5.4 K 0 % 0 % 0 % 0 m²/s² 0 0 10.08 3
05:00 0 J/kg 3.9 K 0 % 0 % 0 % 0 m²/s² 0 0 7.53 3
06:00 0 J/kg 3.8 K 0 % 0 % 0 % 0 m²/s² 0 0 5.39 45
07:00 0 J/kg 3.1 K 0 % 0 % 0 % 0 m²/s² 0 0 3.34
08:00 9 J/kg 3.9 K 0 % 0 % 0 % 0 m²/s² 0 0 4.05
09:00 0 J/kg 1.8 K 0 % 0 % 0 % 0 m²/s² 0 0 2.22
10:00 0 J/kg 1.9 K 0 % 0 % 0 % 0 m²/s² 0 0 2.98
Temp Baro Wind Neerslag
  EWN Forecast EWN WRFDA DWD ICON FMI HIRLAM MET Norway GFS
 08:02     17:40    Daglengte: 9:38 Vandaag
13:00 15.7° 1002.0 hPa 8.1 m/s 0.0 mm 14.7° 1000.9 hPa 8.5 m/s 0.0 mm 15.9° 1001.8 hPa 6.9 m/s -2.0 mm 16.4° 1002.3 hPa 8.2 m/s 0.0 mm 15.6° 1001.2 hPa 7.2 m/s
16:00 15.4° 999.8 hPa 8.0 m/s 0.2 mm 15.8° 998.5 hPa 7.9 m/s 0.0 mm 15.4° 999.8 hPa 5.9 m/s 0.3 mm 15.9° 1000.4 hPa 8.3 m/s 0.0 mm 14.9° 999.2 hPa 7.4 m/s
19:00 14.3° 999.1 hPa 6.2 m/s 1.5 mm 14.5° 998.3 hPa 7.2 m/s 1.0 mm 14.4° 998.9 hPa 5.1 m/s 2.0 mm 14.4° 999.6 hPa 6.3 m/s 0.0 mm 14.2° 998.8 hPa 5.8 m/s
22:00 13.7° 997.9 hPa 4.8 m/s 7.2 mm 13.5° 997.8 hPa 3.1 m/s 21.9 mm 13.8° 998.0 hPa 4.8 m/s 2.3 mm 14.1° 998.4 hPa 6.1 m/s 0.0 mm 13.1° 997.9 hPa 2.9 m/s
 08:04     17:38    Daglengte: 9:34 Morgen
01:00 13.2° 995.6 hPa 5.6 m/s 15.8 mm 12.7° 995.8 hPa 1.3 m/s 57.7 mm 13.6° 996.0 hPa 3.3 m/s 4.3 mm 13.3° 995.8 hPa 6.2 m/s 0.0 mm 11.7° 996.6 hPa 1.0 m/s
04:00 13.1° 992.5 hPa 6.6 m/s 14.9 mm 12.8° 992.7 hPa 4.6 m/s 64.7 mm 13.1° 993.9 hPa 3.7 m/s 4.0 mm 13.0° 992.4 hPa 6.8 m/s 0.0 mm 11.2° 994.6 hPa 0.7 m/s
07:00 12.4° 991.5 hPa 3.6 m/s 6.4 mm 13.4° 990.3 hPa 6.7 m/s 74.7 mm 12.4° 991.8 hPa 1.6 m/s 5.4 mm 13.3° 990.2 hPa 8.4 m/s 0.0 mm 11.8° 992.1 hPa 0.4 m/s
10:00 12.6° 991.1 hPa 5.0 m/s 12.0 mm 14.0° 990.4 hPa 6.2 m/s 75.6 mm 13.0° 991.9 hPa 5.2 m/s 3.4 mm 12.8° 988.6 hPa 7.2 m/s 0.0 mm 12.7° 991.9 hPa 5.6 m/s
13:00 12.5° 989.6 hPa 5.3 m/s 5.9 mm 14.9° 987.8 hPa 8.9 m/s 77.7 mm 13.6° 992.0 hPa 4.5 m/s 0.7 mm 12.4° 987.8 hPa 11.7 m/s 0.0 mm 13.4° 989.9 hPa 5.7 m/s
16:00 10.0° 991.2 hPa 10.5 m/s 6.0 mm 8.9° 991.1 hPa 11.4 m/s 78.6 mm 10.9° 993.3 hPa 4.9 m/s 0.4 mm 10.2° 989.4 hPa 11.4 m/s 0.0 mm 9.1° 990.7 hPa 11.7 m/s
19:00 9.0° 994.6 hPa 6.8 m/s 0.0 mm 8.8° 994.5 hPa 5.4 m/s 78.8 mm 9.1° 995.4 hPa 2.0 m/s 0.0 mm 10.6° 992.5 hPa 8.0 m/s 0.0 mm 8.2° 995.5 hPa 6.1 m/s
22:00 8.5° 996.0 hPa 5.6 m/s 0.0 mm 9.3° 995.1 hPa 4.8 m/s 78.8 mm 8.1° 996.2 hPa 1.5 m/s 0.0 mm 10.0° 994.6 hPa 7.2 m/s 0.0 mm 9.2° 996.1 hPa 4.7 m/s
 08:06     17:36    Daglengte: 9:30 Zaterdag 30 Okt
01:00 8.1° 995.7 hPa 2.8 m/s 0.0 mm 8.8° 994.3 hPa 3.9 m/s 78.8 mm 7.6° 996.0 hPa 2.1 m/s 0.0 mm 8.1° 994.7 hPa 2.4 m/s 0.0 mm 8.9° 995.4 hPa 3.4 m/s
04:00 9.7° 994.1 hPa 5.3 m/s 9.4 mm 10.0° 993.2 hPa 5.5 m/s 79.2 mm 8.7° 995.0 hPa 3.3 m/s 0.0 mm 10.1° 994.5 hPa 6.4 m/s
07:00 9.6° 993.6 hPa 4.5 m/s 22.1 mm 9.3° 993.6 hPa 4.8 m/s 80.5 mm 9.5° 994.2 hPa 3.0 m/s 0.3 mm 9.4° 994.7 hPa 3.5 m/s
10:00 9.2° 993.8 hPa 2.9 m/s 25.5 mm 8.4° 993.8 hPa 3.7 m/s 96.7 mm 9.8° 995.2 hPa 2.4 m/s 0.2 mm 8.5° 994.3 hPa 2.7 m/s
13:00 10.0° 992.8 hPa 3.4 m/s 46.4 mm 9.3° 993.1 hPa 3.3 m/s 114.1 mm 11.4° 995.7 hPa 4.2 m/s 0.0 mm 9.1° 993.9 hPa 1.6 m/s
16:00 11.1° 992.5 hPa 4.5 m/s 14.8 mm 11.5° 992.4 hPa 4.2 m/s 114.1 mm 11.6° 996.2 hPa 3.5 m/s 0.0 mm 10.1° 994.1 hPa 4.0 m/s
19:00 9.2° 994.2 hPa 3.3 m/s 0.0 mm 9.2° 994.0 hPa 2.9 m/s 114.1 mm 9.4° 997.1 hPa 0.7 m/s 0.0 mm 8.6° 995.9 hPa 3.4 m/s
22:00 7.9° 995.0 hPa 3.6 m/s 0.0 mm 7.9° 994.6 hPa 3.8 m/s 114.1 mm 8.0° 997.4 hPa 0.6 m/s 0.0 mm 7.4° 997.2 hPa 2.7 m/s
 08:08     17:34    Daglengte: 9:26 Zondag 31 Okt
01:00 6.4° 996.2 hPa 3.3 m/s 0.0 mm 6.4° 994.9 hPa 3.2 m/s 114.1 mm 6.5° 997.2 hPa 0.6 m/s 0.0 mm 6.4° 997.7 hPa 2.2 m/s
03:00 5.8° 995.4 hPa 0.7 m/s 0.0 mm 5.1° 994.0 hPa 2.2 m/s 114.1 mm 6.0° 995.8 hPa 0.3 m/s 0.0 mm 5.9° 996.6 hPa 1.9 m/s
06:00 5.0° 993.8 hPa 2.0 m/s 0.0 mm 7.0° 991.6 hPa 5.1 m/s 114.1 mm 4.5° 994.4 hPa 1.3 m/s 0.0 mm 7.2° 993.9 hPa 4.0 m/s
09:00 8.6° 988.1 hPa 6.8 m/s 124.6 mm 8.6° 988.1 hPa 6.8 m/s 124.6 mm 8.9° 990.2 hPa 5.9 m/s
12:00 11.0° 987.7 hPa 5.9 m/s 141.9 mm 11.0° 987.7 hPa 5.9 m/s 141.9 mm 9.8° 989.8 hPa 4.3 m/s
15:00 9.5° 989.9 hPa 5.4 m/s 50.7 mm 9.5° 989.9 hPa 5.4 m/s 50.7 mm
18:00 7.3° 990.7 hPa 5.0 m/s 50.7 mm 7.3° 990.7 hPa 5.0 m/s 50.7 mm
21:00 6.9° 990.5 hPa 4.7 m/s 50.7 mm 6.9° 990.5 hPa 4.7 m/s 50.7 mm
 08:10     17:32    Daglengte: 9:22 Maandag 01 Nov
00:00 6.5° 989.4 hPa 4.3 m/s 50.7 mm 6.5° 989.4 hPa 4.3 m/s 50.7 mm
03:00 6.7° 987.4 hPa 5.5 m/s 50.7 mm 6.7° 987.4 hPa 5.5 m/s 50.7 mm
06:00 6.8° 985.5 hPa 6.7 m/s 51.1 mm 6.8° 985.5 hPa 6.7 m/s 51.1 mm
09:00 7.7° 984.4 hPa 8.0 m/s 54.0 mm 7.7° 984.4 hPa 8.0 m/s 54.0 mm
12:00 9.5° 987.4 hPa 10.3 m/s 55.1 mm 9.5° 987.4 hPa 10.3 m/s 55.1 mm
15:00 8.8° 990.9 hPa 10.6 m/s 57.1 mm 8.8° 990.9 hPa 10.6 m/s 57.1 mm
18:00 7.7° 993.2 hPa 7.9 m/s 57.1 mm 7.7° 993.2 hPa 7.9 m/s 57.1 mm
21:00 7.3° 994.6 hPa 5.4 m/s 57.1 mm 7.3° 994.6 hPa 5.4 m/s 57.1 mm
 08:12     17:30    Daglengte: 9:18 Dinsdag 02 Nov
00:00 6.6° 994.0 hPa 5.1 m/s 57.2 mm 6.6° 994.0 hPa 5.1 m/s 57.2 mm
03:00 5.7° 992.6 hPa 3.3 m/s 57.2 mm 5.7° 992.6 hPa 3.3 m/s 57.2 mm
06:00 5.2° 991.3 hPa 1.3 m/s 57.2 mm 5.2° 991.3 hPa 1.3 m/s 57.2 mm
09:00 6.3° 990.0 hPa 0.9 m/s 58.9 mm 6.3° 990.0 hPa 0.9 m/s 58.9 mm
12:00 6.7° 989.7 hPa 1.3 m/s 62.9 mm 6.7° 989.7 hPa 1.3 m/s 62.9 mm
15:00 6.4° 990.0 hPa 1.8 m/s 65.9 mm 6.4° 990.0 hPa 1.8 m/s 65.9 mm
18:00 6.2° 991.5 hPa 1.3 m/s 69.3 mm 6.2° 991.5 hPa 1.3 m/s 69.3 mm
21:00 7.0° 993.0 hPa 3.8 m/s 69.9 mm 7.0° 993.0 hPa 3.8 m/s 69.9 mm
 08:14     17:28    Daglengte: 9:14 Woensdag 03 Nov
00:00 6.8° 995.3 hPa 5.8 m/s 71.2 mm 6.8° 995.3 hPa 5.8 m/s 71.2 mm
03:00 5.9° 997.8 hPa 3.5 m/s 71.2 mm 5.9° 997.8 hPa 3.5 m/s 71.2 mm
06:00 4.9° 999.8 hPa 3.8 m/s 71.2 mm 4.9° 999.8 hPa 3.8 m/s 71.2 mm
09:00 5.7° 1002.0 hPa 3.6 m/s 71.2 mm 5.7° 1002.0 hPa 3.6 m/s 71.2 mm
12:00 7.9° 1003.9 hPa 4.8 m/s 71.2 mm 7.9° 1003.9 hPa 4.8 m/s 71.2 mm
15:00 7.3° 1005.9 hPa 3.9 m/s 71.3 mm 7.3° 1005.9 hPa 3.9 m/s 71.3 mm
18:00 5.2° 1008.8 hPa 2.7 m/s 71.3 mm 5.2° 1008.8 hPa 2.7 m/s 71.3 mm
21:00 4.4° 1011.4 hPa 2.1 m/s 71.3 mm 4.4° 1011.4 hPa 2.1 m/s 71.3 mm
 08:16     17:26    Daglengte: 9:10 Donderdag 04 Nov
00:00 3.5° 1013.0 hPa 1.9 m/s 71.3 mm 3.5° 1013.0 hPa 1.9 m/s 71.3 mm
03:00 2.8° 1014.2 hPa 2.2 m/s 71.3 mm 2.8° 1014.2 hPa 2.2 m/s 71.3 mm
06:00 2.8° 1015.1 hPa 1.9 m/s 71.3 mm 2.8° 1015.1 hPa 1.9 m/s 71.3 mm
09:00 4.2° 1016.0 hPa 2.7 m/s 71.3 mm 4.2° 1016.0 hPa 2.7 m/s 71.3 mm
12:00 7.4° 1015.4 hPa 4.6 m/s 71.3 mm 7.4° 1015.4 hPa 4.6 m/s 71.3 mm
18:00 8.1° 1012.9 hPa 7.5 m/s 71.3 mm 8.1° 1012.9 hPa 7.5 m/s 71.3 mm
 08:18     17:25    Daglengte: 9:07 Vrijdag 05 Nov
00:00 9.9° 1011.5 hPa 7.7 m/s 71.6 mm 9.9° 1011.5 hPa 7.7 m/s 71.6 mm
06:00 8.9° 1011.7 hPa 6.8 m/s 72.0 mm 8.9° 1011.7 hPa 6.8 m/s 72.0 mm
12:00 11.0° 1014.4 hPa 7.4 m/s 72.2 mm 11.0° 1014.4 hPa 7.4 m/s 72.2 mm
18:00 8.5° 1017.9 hPa 5.1 m/s 72.2 mm 8.5° 1017.9 hPa 5.1 m/s 72.2 mm
 08:20     17:23    Daglengte: 9:03 Zaterdag 06 Nov
00:00 8.5° 1018.4 hPa 4.1 m/s 72.2 mm 8.5° 1018.4 hPa 4.1 m/s 72.2 mm
06:00 9.4° 1016.5 hPa 6.0 m/s 72.3 mm 9.4° 1016.5 hPa 6.0 m/s 72.3 mm
12:00 10.9° 1013.3 hPa 8.1 m/s 72.3 mm 10.9° 1013.3 hPa 8.1 m/s 72.3 mm
18:00 12.4° 1011.3 hPa 7.7 m/s 75.7 mm 12.4° 1011.3 hPa 7.7 m/s 75.7 mm
 08:22     17:21    Daglengte: 8:59 Zondag 07 Nov
00:00 12.7° 1010.3 hPa 7.2 m/s 77.2 mm 12.7° 1010.3 hPa 7.2 m/s 77.2 mm
06:00 5.5° 1012.2 hPa 3.1 m/s 0.5 mm
12:00 8.5° 1012.4 hPa 3.2 m/s 0.7 mm
18:00 6.4° 1012.7 hPa 2.5 m/s 0.5 mm
 08:23     17:19    Daglengte: 8:56 Maandag 08 Nov
00:00 5.5° 1013.7 hPa 2.2 m/s 0.8 mm
06:00 4.6° 1014.6 hPa 1.9 m/s 0.4 mm
12:00 8.0° 1015.7 hPa 2.8 m/s 0.6 mm
18:00 6.2° 1016.3 hPa 2.5 m/s 0.3 mm
 08:25     17:17    Daglengte: 8:52 Dinsdag 09 Nov
00:00 5.8° 1016.3 hPa 3.4 m/s 0.9 mm
06:00 5.7° 1016.2 hPa 3.5 m/s 0.4 mm
12:00 8.3° 1017.7 hPa 4.5 m/s 0.3 mm
18:00 6.4° 1018.5 hPa 3.1 m/s 0.2 mm
 08:27     17:16    Daglengte: 8:49 Woensdag 10 Nov
00:00 5.9° 1018.4 hPa 2.9 m/s 0.4 mm
06:00 6.2° 1017.8 hPa 3.5 m/s 0.4 mm
12:00 9.4° 1018.0 hPa 4.6 m/s 0.4 mm
18:00 7.5° 1017.3 hPa 4.0 m/s 0.5 mm
 08:29     17:14    Daglengte: 8:45 Donderdag 11 Nov
00:00 6.9° 1017.0 hPa 4.2 m/s 1.0 mm
06:00 6.1° 1017.0 hPa 3.8 m/s 0.5 mm
12:00 9.1° 1017.3 hPa 4.0 m/s 0.4 mm
18:00 6.6° 1017.2 hPa 3.2 m/s 0.2 mm
 08:31     17:12    Daglengte: 8:41 Vrijdag 12 Nov
00:00 5.6° 1017.4 hPa 3.1 m/s 0.3 mm
06:00 5.2° 1017.1 hPa 3.0 m/s 0.2 mm
FMI Hirlam - 7.5 km EWN WRFDA - 12 km DWD ICON - 7 km GFS - 25 km Basiskaart






























































Updatetijd (Europe/Brussels) Resolutie Lengte Stap
FMI Hirlam 07:00, 13:00, 19:00, 01:00 7.5 km 49h 1h
EWN WRFDA 09:30, 15:30, 21:30, 03:30 12 km 73h 1h
DWD ICON 11:45, 17:45, 23:45, 05:45 7 km 75h 1h
GFS 08:30, 14:30, 20:30, 02:30 25 km 237h 3h
30+ mm
25-30 mm
20-25 mm
15-20 mm
10-15 mm
6-10 mm
4-6 mm
2-4 mm
1-2 mm
0.5-1 mm
0.2-0.5 mm
0.1-0.2 mm
30+ mm
25-30 mm
20-25 mm
15-20 mm
10-15 mm
6-10 mm
4-6 mm
2-4 mm
1-2 mm
0.5-1 mm
0.2-0.5 mm
0.1-0.2 mm
Sneeuwval
Natte sneeuw
Hagel
Vorst
30+ mm
25-30 mm
20-25 mm
15-20 mm
10-15 mm
6-10 mm
4-6 mm
2-4 mm
1-2 mm
0.5-1 mm
0.2-0.5 mm
0.1-0.2 mm
Sneeuwval
Natte sneeuw
Hagel
Vorst
Onweer
50 mm
40 mm
30 mm
26 mm
22 mm
18 mm
14 mm
10 mm
9 mm
8 mm
7 mm
6 mm
5 mm
4.5 mm
4 mm
3.5 mm
3 mm
2.5 mm
2 mm
1.5 mm
1 mm
0.8 mm
0.6 mm
0.4 mm
0.2 mm
0.05 mm
35°
30°
25°
20°
15°
10°
-5°
-10°
-15°
-20°
-25°
-30°
-35°
33> m/s
29 m/s
25 m/s
21 m/s
17 m/s
14 m/s
11 m/s
8 m/s
5 m/s
3 m/s
0 m/s
2600 J/kg
2400 J/kg
2200 J/kg
2000 J/kg
1800 J/kg
1600 J/kg
1400 J/kg
1200 J/kg
1000 J/kg
800 J/kg
600 J/kg
400 J/kg
200 J/kg
70 dBZ
65 dBZ
60 dBZ
55 dBZ
50 dBZ
45 dBZ
40 dBZ
35 dBZ
30 dBZ
25 dBZ
20 dBZ
15 dBZ
10 dBZ
5 dBZ
-1 K
-2 K
-3 K
-4 K
-5 K
-6 K
-7 K
-8 K
-9 K
950 m²/s²
900 m²/s²
850 m²/s²
800 m²/s²
750 m²/s²
700 m²/s²
650 m²/s²
600 m²/s²
550 m²/s²
500 m²/s²
450 m²/s²
400 m²/s²
350 m²/s²
300 m²/s²
250 m²/s²
200 m²/s²
150 m²/s²
100 m²/s²
46 m/s
44 m/s
42 m/s
40 m/s
38 m/s
36 m/s
34 m/s
32 m/s
30 m/s
28 m/s
26 m/s
24 m/s
22 m/s
20 m/s
16 m/s
12 m/s
8 m/s
4 m/s
30 m/s
28 m/s
26 m/s
24 m/s
22 m/s
20 m/s
18 m/s
16 m/s
14 m/s
12 m/s
10 m/s
8 m/s
6 m/s
4 m/s
2 m/s
3.0
2.8
2.6
2.4
2.2
2.0
1.8
1.6
1.4
1.2
1.0
0.8
0.6
0.4
0.2
15
14
13
12
11
10
9
8
7
6
5
4
3
2
1
90%
80%
70%
60%
50%
40%
30%
20%
10%
42
40
38
36
34
32
30
28
26
24
22
20
18
16
14
12
90+ cm
80-90 cm
70-80 cm
60-70 cm
50-60 cm
40-50 cm
30-40 cm
20-30 cm
10-20 cm
1-10 cm
Sneeuwval
Natte sneeuw
Regen
>120 mm
115 mm
110 mm
105 mm
100 mm
95 mm
90 mm
85 mm
80 mm
75 mm
70 mm
65 mm
60 mm
55 mm
50 mm
45 mm
45 mm
40 mm
35 mm
30 mm
25 mm
20 mm
15 mm
10 mm
5 mm
0.1 mm
960 hPa
880 hPa
800 hPa
720 hPa
640 hPa
560 hPa
584 gpdm
568 gpdm
552 gpdm
536 gpdm
520 gpdm
504 gpdm
488 gpdm
Extreem zwaar Noodweer Kans op onweer
15% 15% 5% 50% 15%

Dag




Kaart






35°
30°
25°
20°